This demonstration page uses our WeatherBlox Daily Observations layout. Learn more.

Left ArrowRight Arrow

53.62937, 11.41316

Hourly Observations for February 6, 2020

Temp ( °F °C ) Dew Point ( °F °C ) Humidity (%) Winds ( mph kmh ) Pressure ( in mb ) Visibility ( mi km ) Precip ( " mm )
6:50 am 06:50 Mostly Cloudy 41 5 37 3 87 87 W 8 13 30.33 1027 30 48 N/A
7:20 am 07:20 Mostly Cloudy 41 5 37 3 87 87 W 8 13 30.33 1027 30 48 N/A
7:50 am 07:50 Mostly Cloudy 41 5 37 3 87 87 W 7 11 30.33 1027 30 48 N/A
8:20 am 08:20 Mostly Cloudy 41 5 37 3 87 87 W 6 9 30.33 1027 30 48 N/A
8:50 am 08:50 Mostly Cloudy 41 5 37 3 87 87 W 7 11 30.33 1027 30 48 N/A
9:20 am 09:20 Mostly Cloudy 41 5 37 3 87 87 W 8 13 30.33 1027 30 48 N/A
9:50 am 09:50 Mostly Cloudy 41 5 37 3 87 87 W 7 11 30.33 1027 30 48 N/A
10:20 am 10:20 Mostly Cloudy 43 6 37 3 81 81 W 7 11 30.33 1027 30 48 N/A
10:50 am 10:50 Mostly Cloudy 43 6 37 3 81 81 W 10 17 30.36 1028 30 48 N/A
11:20 am 11:20 Mostly Cloudy 43 6 37 3 81 81 W 10 17 30.36 1028 30 48 N/A
11:50 am 11:50 Mostly Cloudy 45 7 37 3 76 76 W 9 15 30.36 1028 30 48 N/A
12:20 pm 12:20 Mostly Cloudy 45 7 39 4 81 81 W 8 13 30.33 1027 30 48 N/A
12:50 pm 12:50 Mostly Cloudy 45 7 39 4 81 81 W 8 13 30.33 1027 30 48 N/A
1:20 pm 13:20 Mostly Cloudy 45 7 37 3 76 76 W 8 13 30.33 1027 30 48 N/A
1:50 pm 13:50 Mostly Cloudy 45 7 37 3 76 76 W 8 13 30.33 1027 30 48 N/A
2:20 pm 14:20 Mostly Cloudy 45 7 37 3 76 76 W 7 11 30.33 1027 30 48 N/A
2:50 pm 14:50 Mostly Cloudy 45 7 37 3 76 76 W 8 13 30.30 1026 30 48 N/A
3:20 pm 15:20 Mostly Cloudy 45 7 37 3 76 76 W 12 19 30.33 1027 30 48 N/A
3:50 pm 15:50 Mostly Cloudy 45 7 37 3 76 76 W 10 17 30.33 1027 30 48 N/A
4:20 pm 16:20 Mostly Cloudy 45 7 37 3 76 76 W 8 13 30.33 1027 30 48 N/A
4:50 pm 16:50 Mostly Cloudy 45 7 37 3 76 76 W 8 13 30.33 1027 30 48 N/A
5:20 pm 17:20 Mostly Cloudy 45 7 37 3 76 76 W 9 15 30.33 1027 30 48 N/A
5:50 pm 17:50 Mostly Cloudy 45 7 37 3 76 76 W 8 13 30.33 1027 30 48 N/A
6:20 pm 18:20 Mostly Cloudy 43 6 37 3 81 81 W 7 11 30.33 1027 30 48 N/A
6:50 pm 18:50 Mostly Cloudy 43 6 37 3 81 81 W 8 13 30.36 1028 30 48 N/A
7:20 pm 19:20 Mostly Cloudy 43 6 37 3 81 81 W 8 13 30.33 1027 30 48 N/A
7:50 pm 19:50 Mostly Cloudy 43 6 37 3 81 81 W 7 11 30.33 1027 30 48 N/A

Powered by AerisWeather